Time,TemperatureF,DewpointF,PressureIn,WindDirection,WindDirectionDegrees,WindSpeedMPH,WindSpeedGustMPH,Humidity,HourlyPrecipIn,Conditions,Clouds,dailyrainin,SoftwareType,DateUTC
2013-04-10 00:02:00,59.8,45.0,30.33,SW,225,0.0,3.3,57,0.00,,,0.00,Rainwise IP-100,2013-04-10 07:02:00,
2013-04-10 00:07:00,59.1,44.0,30.33,SW,225,0.0,1.6,58,0.00,,,0.00,Rainwise IP-100,2013-04-10 07:07:00,
2013-04-10 00:12:00,58.1,45.0,30.33,WNW,292,2.1,2.1,62,0.00,,,0.00,Rainwise IP-100,2013-04-10 07:12:00,
2013-04-10 00:17:00,57.6,45.0,30.32,WNW,292,0.0,3.3,63,0.00,,,0.00,Rainwise IP-100,2013-04-10 07:17:00,
2013-04-10 00:22:00,57.7,45.0,30.33,NNE,22,0.0,3.7,62,0.00,,,0.00,Rainwise IP-100,2013-04-10 07:22:00,
2013-04-10 00:27:00,57.2,45.0,30.33,ENE,67,0.0,1.9,64,0.00,,,0.00,Rainwise IP-100,2013-04-10 07:27:00,
2013-04-10 00:32:00,56.4,45.0,30.33,ESE,112,2.6,2.6,66,0.00,,,0.00,Rainwise IP-100,2013-04-10 07:32:00,
2013-04-10 00:37:00,55.6,46.0,30.33,NNE,22,0.0,2.6,69,0.00,,,0.00,Rainwise IP-100,2013-04-10 07:37:00,
2013-04-10 00:42:00,54.7,46.0,30.33,ENE,67,0.0,3.3,72,0.00,,,0.00,Rainwise IP-100,2013-04-10 07:42:00,
2013-04-10 00:47:00,54.3,46.0,30.33,NNE,22,1.4,2.6,73,0.00,,,0.00,Rainwise IP-100,2013-04-10 07:47:00,
2013-04-10 00:52:00,54.0,46.0,30.32,East,90,1.2,1.9,74,0.00,,,0.00,Rainwise IP-100,2013-04-10 07:52:00,
2013-04-10 00:57:00,53.7,46.0,30.32,NW,315,0.0,4.4,75,0.00,,,0.00,Rainwise IP-100,2013-04-10 07:57:00,
2013-04-10 01:02:00,53.9,47.0,30.32,WNW,292,2.1,4.9,75,0.00,,,0.00,Rainwise IP-100,2013-04-10 08:02:00,
2013-04-10 01:07:00,55.1,46.0,30.32,NW,315,0.0,7.0,71,0.00,,,0.00,Rainwise IP-100,2013-04-10 08:07:00,
2013-04-10 01:12:00,56.0,46.0,30.32,SSW,202,0.0,4.2,68,0.00,,,0.00,Rainwise IP-100,2013-04-10 08:12:00,
2013-04-10 01:17:00,55.2,46.0,30.32,ESE,112,0.0,3.5,70,0.00,,,0.00,Rainwise IP-100,2013-04-10 08:17:00,
2013-04-10 01:22:00,54.1,46.0,30.31,East,90,2.3,3.0,74,0.00,,,0.00,Rainwise IP-100,2013-04-10 08:22:00,
2013-04-10 01:27:00,53.5,46.0,30.32,SSE,157,0.0,4.9,76,0.00,,,0.00,Rainwise IP-100,2013-04-10 08:27:00,
2013-04-10 01:32:00,52.9,46.0,30.32,WNW,292,1.4,1.6,77,0.00,,,0.00,Rainwise IP-100,2013-04-10 08:32:00,
2013-04-10 01:37:00,52.7,46.0,30.31,SW,225,0.0,3.0,78,0.00,,,0.00,Rainwise IP-100,2013-04-10 08:37:00,
2013-04-10 01:42:00,53.1,46.0,30.32,SSE,157,1.9,3.3,78,0.00,,,0.00,Rainwise IP-100,2013-04-10 08:42:00,
2013-04-10 01:48:00,53.7,46.0,30.32,NNW,337,0.0,4.4,75,0.00,,,0.00,Rainwise IP-100,2013-04-10 08:48:00,
2013-04-10 01:53:00,54.1,46.0,30.33,South,180,0.0,4.4,74,0.00,,,0.00,Rainwise IP-100,2013-04-10 08:53:00,
2013-04-10 01:58:00,54.3,46.0,30.32,WSW,247,2.1,4.0,73,0.00,,,0.00,Rainwise IP-100,2013-04-10 08:58:00,
2013-04-10 02:03:00,54.1,46.0,30.32,SSE,157,0.0,2.6,73,0.00,,,0.00,Rainwise IP-100,2013-04-10 09:03:00,
2013-04-10 02:08:00,54.0,46.0,30.32,WNW,292,3.5,7.0,74,0.00,,,0.00,Rainwise IP-100,2013-04-10 09:08:00,
2013-04-10 02:13:00,53.8,46.0,30.33,West,270,4.2,7.0,74,0.00,,,0.00,Rainwise IP-100,2013-04-10 09:13:00,
2013-04-10 02:18:00,53.5,46.0,30.33,WNW,292,4.2,8.2,76,0.00,,,0.00,Rainwise IP-100,2013-04-10 09:18:00,
2013-04-10 02:23:00,53.2,46.0,30.33,WNW,292,4.2,7.5,77,0.00,,,0.00,Rainwise IP-100,2013-04-10 09:23:00,
2013-04-10 02:28:00,53.1,46.0,30.32,WNW,292,7.2,7.5,77,0.00,,,0.00,Rainwise IP-100,2013-04-10 09:28:00,
2013-04-10 02:34:00,52.9,46.0,30.32,WNW,292,6.5,8.9,78,0.00,,,0.00,Rainwise IP-100,2013-04-10 09:34:00,
2013-04-10 02:39:00,52.9,46.0,30.32,WNW,292,5.6,8.9,78,0.00,,,0.00,Rainwise IP-100,2013-04-10 09:39:00,
2013-04-10 02:44:00,53.8,47.0,30.32,WNW,292,4.4,7.0,75,0.00,,,0.00,Rainwise IP-100,2013-04-10 09:44:00,
2013-04-10 02:49:00,56.0,46.0,30.32,WNW,292,1.9,4.7,68,0.00,,,0.00,Rainwise IP-100,2013-04-10 09:49:00,
2013-04-10 02:54:00,57.7,44.0,30.32,NNW,337,2.8,3.0,60,0.00,,,0.00,Rainwise IP-100,2013-04-10 09:54:00,
2013-04-10 02:59:00,58.3,43.0,30.32,WNW,292,3.3,6.1,57,0.00,,,0.00,Rainwise IP-100,2013-04-10 09:59:00,
2013-04-10 03:04:00,59.1,42.0,30.32,WSW,247,1.9,4.7,54,0.00,,,0.00,Rainwise IP-100,2013-04-10 10:04:00,
2013-04-10 03:10:00,60.1,42.0,30.32,WNW,292,2.3,4.4,51,0.00,,,0.00,Rainwise IP-100,2013-04-10 10:10:00,
2013-04-10 03:15:00,60.5,41.0,30.32,WNW,292,1.4,3.7,49,0.00,,,0.00,Rainwise IP-100,2013-04-10 10:15:00,
2013-04-10 03:20:00,60.1,40.0,30.32,West,270,1.9,2.8,49,0.00,,,0.00,Rainwise IP-100,2013-04-10 10:20:00,
2013-04-10 03:25:00,59.6,41.0,30.32,North,360,0.0,3.0,50,0.00,,,0.00,Rainwise IP-100,2013-04-10 10:25:00,
2013-04-10 03:30:00,59.5,41.0,30.32,West,270,1.6,3.0,50,0.00,,,0.00,Rainwise IP-100,2013-04-10 10:30:00,
2013-04-10 03:36:00,60.3,40.0,30.32,WNW,292,1.6,4.9,48,0.00,,,0.00,Rainwise IP-100,2013-04-10 10:36:00,
2013-04-10 03:41:00,61.3,40.0,30.33,West,270,4.0,4.9,46,0.00,,,0.00,Rainwise IP-100,2013-04-10 10:41:00,
2013-04-10 03:46:00,61.2,40.0,30.33,ENE,67,0.0,4.0,47,0.00,,,0.00,Rainwise IP-100,2013-04-10 10:46:00,
2013-04-10 03:51:00,60.0,41.0,30.33,WNW,292,0.0,4.4,50,0.00,,,0.00,Rainwise IP-100,2013-04-10 10:51:00,
2013-04-10 03:57:00,59.8,41.0,30.33,NNW,337,2.1,4.9,50,0.00,,,0.00,Rainwise IP-100,2013-04-10 10:57:00,
2013-04-10 04:02:00,59.9,41.0,30.33,ENE,67,1.6,4.2,50,0.00,,,0.00,Rainwise IP-100,2013-04-10 11:02:00,
2013-04-10 04:07:00,59.1,42.0,30.32,NW,315,1.6,2.8,53,0.00,,,0.00,Rainwise IP-100,2013-04-10 11:07:00,
2013-04-10 04:12:00,59.3,42.0,30.32,WNW,292,4.2,6.1,52,0.00,,,0.00,Rainwise IP-100,2013-04-10 11:12:00,
2013-04-10 04:17:00,62.3,41.0,30.33,NW,315,2.6,8.6,45,0.00,,,0.00,Rainwise IP-100,2013-04-10 11:17:00,
2013-04-10 04:22:00,63.7,40.0,30.33,WSW,247,3.7,7.5,42,0.00,,,0.00,Rainwise IP-100,2013-04-10 11:22:00,
2013-04-10 04:27:00,63.2,40.0,30.33,WNW,292,2.8,6.1,43,0.00,,,0.00,Rainwise IP-100,2013-04-10 11:27:00,
2013-04-10 04:32:00,62.0,40.0,30.33,East,90,0.0,9.3,45,0.00,,,0.00,Rainwise IP-100,2013-04-10 11:32:00,
2013-04-10 04:38:00,62.4,40.0,30.33,WNW,292,4.7,7.2,44,0.00,,,0.00,Rainwise IP-100,2013-04-10 11:38:00,
2013-04-10 04:42:00,62.2,41.0,30.34,ESE,112,1.4,6.3,47,0.00,,,0.00,Rainwise IP-100,2013-04-10 11:42:00,
2013-04-10 04:47:00,59.7,43.0,30.34,SSE,157,0.0,1.9,54,0.00,,,0.00,Rainwise IP-100,2013-04-10 11:47:00,
2013-04-10 04:53:00,57.2,43.0,30.34,NNW,337,1.4,2.8,60,0.00,,,0.00,Rainwise IP-100,2013-04-10 11:53:00,
2013-04-10 04:58:00,56.3,43.0,30.34,North,360,0.0,2.1,61,0.00,,,0.00,Rainwise IP-100,2013-04-10 11:58:00,
2013-04-10 05:03:00,56.3,43.0,30.34,North,360,0.0,2.3,61,0.00,,,0.00,Rainwise IP-100,2013-04-10 12:03:00,
2013-04-10 05:08:00,55.7,44.0,30.34,ESE,112,2.1,4.0,64,0.00,,,0.00,Rainwise IP-100,2013-04-10 12:08:00,
2013-04-10 05:13:00,54.6,45.0,30.33,ENE,67,1.6,3.3,69,0.00,,,0.00,Rainwise IP-100,2013-04-10 12:13:00,
2013-04-10 05:18:00,53.7,45.0,30.34,ENE,67,0.0,3.3,72,0.00,,,0.00,Rainwise IP-100,2013-04-10 12:18:00,
2013-04-10 05:23:00,52.6,45.0,30.34,ENE,67,0.0,2.6,76,0.00,,,0.00,Rainwise IP-100,2013-04-10 12:23:00,
2013-04-10 05:28:00,52.0,45.0,30.34,ENE,67,0.0,2.1,78,0.00,,,0.00,Rainwise IP-100,2013-04-10 12:28:00,
2013-04-10 05:33:00,51.6,46.0,30.34,ENE,67,0.0,1.6,80,0.00,,,0.00,Rainwise IP-100,2013-04-10 12:33:00,
2013-04-10 05:38:00,51.4,46.0,30.34,ENE,67,0.0,1.9,81,0.00,,,0.00,Rainwise IP-100,2013-04-10 12:38:00,
2013-04-10 05:43:00,51.1,46.0,30.34,NE,45,0.0,3.0,82,0.00,,,0.00,Rainwise IP-100,2013-04-10 12:43:00,
2013-04-10 05:48:00,50.9,46.0,30.35,NE,45,0.0,3.7,82,0.00,,,0.00,Rainwise IP-100,2013-04-10 12:48:00,
2013-04-10 05:53:00,50.9,47.0,30.35,North,360,0.0,3.0,83,0.00,,,0.00,Rainwise IP-100,2013-04-10 12:53:00,
2013-04-10 05:58:00,50.9,47.0,30.35,NNE,22,0.0,2.6,84,0.00,,,0.00,Rainwise IP-100,2013-04-10 12:58:00,
2013-04-10 06:03:00,51.0,47.0,30.34,NNE,22,0.0,1.4,83,0.00,,,0.00,Rainwise IP-100,2013-04-10 13:03:00,
2013-04-10 06:08:00,51.2,47.0,30.35,NNE,22,0.0,1.2,83,0.00,,,0.00,Rainwise IP-100,2013-04-10 13:08:00,
2013-04-10 06:13:00,51.4,46.0,30.35,SSE,157,0.0,1.6,82,0.00,,,0.00,Rainwise IP-100,2013-04-10 13:13:00,
2013-04-10 06:18:00,51.6,47.0,30.36,NE,45,0.0,1.9,81,0.00,,,0.00,Rainwise IP-100,2013-04-10 13:18:00,
2013-04-10 06:23:00,52.0,46.0,30.36,NNE,22,0.0,0.0,80,0.00,,,0.00,Rainwise IP-100,2013-04-10 13:23:00,
2013-04-10 06:28:00,52.5,46.0,30.36,WNW,292,1.2,2.3,78,0.00,,,0.00,Rainwise IP-100,2013-04-10 13:28:00,
2013-04-10 06:33:00,53.4,46.0,30.36,WNW,292,0.0,1.9,75,0.00,,,0.00,Rainwise IP-100,2013-04-10 13:33:00,
2013-04-10 06:38:00,54.4,46.0,30.36,ESE,112,0.0,1.6,71,0.00,,,0.00,Rainwise IP-100,2013-04-10 13:38:00,
2013-04-10 06:44:00,55.2,45.0,30.37,ESE,112,0.0,1.9,68,0.00,,,0.00,Rainwise IP-100,2013-04-10 13:44:00,
2013-04-10 06:49:00,55.6,45.0,30.37,WNW,292,2.3,2.8,67,0.00,,,0.00,Rainwise IP-100,2013-04-10 13:49:00,
2013-04-10 06:54:00,56.5,44.0,30.37,WNW,292,0.0,2.8,64,0.00,,,0.00,Rainwise IP-100,2013-04-10 13:54:00,
2013-04-10 06:59:00,57.5,44.0,30.37,WNW,292,0.0,1.4,61,0.00,,,0.00,Rainwise IP-100,2013-04-10 13:59:00,
2013-04-10 07:04:00,58.0,44.0,30.37,WNW,292,0.0,1.2,59,0.00,,,0.00,Rainwise IP-100,2013-04-10 14:04:00,
2013-04-10 07:09:00,58.3,44.0,30.38,WNW,292,0.0,1.4,59,0.00,,,0.00,Rainwise IP-100,2013-04-10 14:09:00,
2013-04-10 07:14:00,58.5,45.0,30.38,WNW,292,0.0,1.4,59,0.00,,,0.00,Rainwise IP-100,2013-04-10 14:14:00,
2013-04-10 07:19:00,59.2,44.0,30.39,WNW,292,0.0,0.0,57,0.00,,,0.00,Rainwise IP-100,2013-04-10 14:19:00,
2013-04-10 07:24:00,59.7,45.0,30.39,WNW,292,1.2,0.0,58,0.00,,,0.00,Rainwise IP-100,2013-04-10 14:24:00,
2013-04-10 07:29:00,59.8,46.0,30.39,WNW,292,0.0,1.4,59,0.00,,,0.00,Rainwise IP-100,2013-04-10 14:29:00,
2013-04-10 07:34:00,60.0,46.0,30.39,WNW,292,0.0,0.0,59,0.00,,,0.00,Rainwise IP-100,2013-04-10 14:34:00,
2013-04-10 07:39:00,60.2,46.0,30.39,WNW,292,0.0,0.0,60,0.00,,,0.00,Rainwise IP-100,2013-04-10 14:39:00,
2013-04-10 07:44:00,60.4,47.0,30.39,WNW,292,0.0,1.2,61,0.00,,,0.00,Rainwise IP-100,2013-04-10 14:44:00,
2013-04-10 07:49:00,60.8,47.5,30.39,WNW,292,0.0,0.0,61,0.00,,,0.00,Rainwise IP-100,2013-04-10 14:49:00,
2013-04-10 07:54:00,61.1,47.5,30.39,WNW,292,0.0,0.0,61,0.00,,,0.00,Rainwise IP-100,2013-04-10 14:54:00,
2013-04-10 07:59:00,61.3,47.5,30.39,WNW,292,0.0,0.0,60,0.00,,,0.00,Rainwise IP-100,2013-04-10 14:59:00,
2013-04-10 08:04:00,61.8,48.0,30.39,WNW,292,0.0,0.0,60,0.00,,,0.00,Rainwise IP-100,2013-04-10 15:04:00,
2013-04-10 08:09:00,62.6,48.0,30.39,WNW,292,0.0,0.0,59,0.00,,,0.00,Rainwise IP-100,2013-04-10 15:09:00,
2013-04-10 08:14:00,63.5,48.0,30.39,WNW,292,0.0,0.0,58,0.00,,,0.00,Rainwise IP-100,2013-04-10 15:14:00,
2013-04-10 08:19:00,64.2,48.0,30.39,WNW,292,0.0,1.4,57,0.00,,,0.00,Rainwise IP-100,2013-04-10 15:19:00,
2013-04-10 08:24:00,64.2,48.0,30.39,SSW,202,1.9,5.1,57,0.00,,,0.00,Rainwise IP-100,2013-04-10 15:24:00,
2013-04-10 08:29:00,62.9,48.0,30.40,SSW,202,1.6,7.2,59,0.00,,,0.00,Rainwise IP-100,2013-04-10 15:29:00,
2013-04-10 08:34:00,61.7,48.0,30.40,SW,225,4.4,5.1,61,0.00,,,0.00,Rainwise IP-100,2013-04-10 15:34:00,
2013-04-10 08:39:00,61.3,49.0,30.40,West,270,3.0,6.3,63,0.00,,,0.00,Rainwise IP-100,2013-04-10 15:39:00,
2013-04-10 08:44:00,61.0,49.0,30.40,WSW,247,3.3,6.1,64,0.00,,,0.00,Rainwise IP-100,2013-04-10 15:44:00,
2013-04-10 08:49:00,61.1,49.0,30.40,WNW,292,1.2,4.4,65,0.00,,,0.00,Rainwise IP-100,2013-04-10 15:49:00,
2013-04-10 08:54:00,61.9,50.0,30.41,NNE,22,0.0,1.9,65,0.00,,,0.00,Rainwise IP-100,2013-04-10 15:54:00,
2013-04-10 08:59:00,63.5,50.5,30.41,WSW,247,0.0,1.4,63,0.00,,,0.00,Rainwise IP-100,2013-04-10 15:59:00,
2013-04-10 09:04:00,65.1,51.0,30.40,SW,225,0.0,2.3,61,0.00,,,0.00,Rainwise IP-100,2013-04-10 16:04:00,
2013-04-10 09:09:00,66.2,50.5,30.40,SSE,157,1.2,3.0,57,0.00,,,0.00,Rainwise IP-100,2013-04-10 16:09:00,
2013-04-10 09:14:00,66.9,50.5,30.41,ESE,112,2.1,2.8,55,0.00,,,0.00,Rainwise IP-100,2013-04-10 16:14:00,
2013-04-10 09:19:00,67.6,50.0,30.40,ESE,112,0.0,2.1,53,0.00,,,0.00,Rainwise IP-100,2013-04-10 16:19:00,
2013-04-10 09:24:00,68.4,50.0,30.40,SSE,157,0.0,2.8,51,0.00,,,0.00,Rainwise IP-100,2013-04-10 16:24:00,
2013-04-10 09:29:00,68.4,50.0,30.40,South,180,3.0,6.8,52,0.00,,,0.00,Rainwise IP-100,2013-04-10 16:29:00,
2013-04-10 09:34:00,67.3,50.5,30.40,SW,225,7.2,7.9,55,0.00,,,0.00,Rainwise IP-100,2013-04-10 16:34:00,
2013-04-10 09:39:00,66.1,50.5,30.41,WSW,247,1.2,7.2,58,0.00,,,0.00,Rainwise IP-100,2013-04-10 16:39:00,
2013-04-10 09:44:00,66.2,51.0,30.41,WSW,247,2.3,4.4,59,0.00,,,0.00,Rainwise IP-100,2013-04-10 16:44:00,
2013-04-10 09:49:00,67.2,52.0,30.41,East,90,0.0,4.0,58,0.00,,,0.00,Rainwise IP-100,2013-04-10 16:49:00,
2013-04-10 09:54:00,67.5,52.0,30.41,SW,225,5.1,7.0,57,0.00,,,0.00,Rainwise IP-100,2013-04-10 16:54:00,
2013-04-10 09:59:00,66.6,51.0,30.41,WSW,247,0.0,5.6,58,0.00,,,0.00,Rainwise IP-100,2013-04-10 16:59:00,
2013-04-10 10:04:00,66.5,52.0,30.41,West,270,0.0,4.2,59,0.00,,,0.00,Rainwise IP-100,2013-04-10 17:04:00,
2013-04-10 10:09:00,67.1,51.0,30.41,WNW,292,3.3,6.8,57,0.00,,,0.00,Rainwise IP-100,2013-04-10 17:09:00,
2013-04-10 10:14:00,66.7,51.0,30.41,WNW,292,0.0,6.8,57,0.00,,,0.00,Rainwise IP-100,2013-04-10 17:14:00,
2013-04-10 10:19:00,66.6,51.0,30.41,WSW,247,2.6,6.3,57,0.00,,,0.00,Rainwise IP-100,2013-04-10 17:19:00,
2013-04-10 10:24:00,66.8,50.5,30.42,SSW,202,4.4,6.3,56,0.00,,,0.00,Rainwise IP-100,2013-04-10 17:24:00,
2013-04-10 10:29:00,67.4,50.0,30.41,ESE,112,4.0,7.5,53,0.00,,,0.00,Rainwise IP-100,2013-04-10 17:29:00,
2013-04-10 10:34:00,68.4,49.0,30.42,WNW,292,2.3,8.6,50,0.00,,,0.00,Rainwise IP-100,2013-04-10 17:34:00,
2013-04-10 10:39:00,68.0,48.0,30.42,SSW,202,7.0,12.1,49,0.00,,,0.00,Rainwise IP-100,2013-04-10 17:39:00,
2013-04-10 10:44:00,66.9,50.0,30.42,West,270,7.7,10.5,53,0.00,,,0.00,Rainwise IP-100,2013-04-10 17:44:00,
2013-04-10 10:49:00,65.8,50.0,30.41,WNW,292,3.5,10.5,56,0.00,,,0.00,Rainwise IP-100,2013-04-10 17:49:00,
2013-04-10 10:54:00,65.1,49.0,30.42,WNW,292,6.1,10.7,57,0.00,,,0.00,Rainwise IP-100,2013-04-10 17:54:00,
2013-04-10 10:59:00,65.3,50.5,30.42,WSW,247,1.2,10.7,58,0.00,,,0.00,Rainwise IP-100,2013-04-10 17:59:00,
2013-04-10 11:04:00,65.5,50.5,30.42,WNW,292,4.2,7.2,58,0.00,,,0.00,Rainwise IP-100,2013-04-10 18:04:00,
2013-04-10 11:09:00,65.7,50.5,30.42,West,270,4.2,7.7,58,0.00,,,0.00,Rainwise IP-100,2013-04-10 18:09:00,
2013-04-10 11:14:00,66.0,50.5,30.42,SW,225,1.6,7.2,58,0.00,,,0.00,Rainwise IP-100,2013-04-10 18:14:00,
2013-04-10 11:19:00,66.1,50.0,30.41,WNW,292,3.0,6.8,57,0.00,,,0.00,Rainwise IP-100,2013-04-10 18:19:00,
2013-04-10 11:24:00,66.0,50.0,30.41,NW,315,1.9,10.0,57,0.00,,,0.00,Rainwise IP-100,2013-04-10 18:24:00,
2013-04-10 11:29:00,65.7,50.0,30.41,South,180,1.9,8.6,57,0.00,,,0.00,Rainwise IP-100,2013-04-10 18:29:00,
2013-04-10 11:34:00,65.4,50.0,30.41,WSW,247,1.6,8.2,57,0.00,,,0.00,Rainwise IP-100,2013-04-10 18:34:00,
2013-04-10 11:39:00,65.5,50.0,30.41,WSW,247,1.6,8.4,57,0.00,,,0.00,Rainwise IP-100,2013-04-10 18:39:00,
2013-04-10 11:44:00,65.5,50.5,30.41,SW,225,6.3,10.7,58,0.00,,,0.00,Rainwise IP-100,2013-04-10 18:44:00,
2013-04-10 11:49:00,64.1,50.0,30.41,SSE,157,5.1,12.6,60,0.00,,,0.00,Rainwise IP-100,2013-04-10 18:49:00,
2013-04-10 11:54:00,63.4,50.5,30.41,WNW,292,4.0,8.6,62,0.00,,,0.00,Rainwise IP-100,2013-04-10 18:54:00,
2013-04-10 11:59:00,64.4,50.5,30.41,NW,315,2.1,12.8,61,0.00,,,0.00,Rainwise IP-100,2013-04-10 18:59:00,
2013-04-10 12:04:00,64.8,50.5,30.41,WSW,247,4.7,10.3,60,0.00,,,0.00,Rainwise IP-100,2013-04-10 19:04:00,
2013-04-10 12:09:00,64.5,50.5,30.41,WSW,247,8.6,8.9,60,0.00,,,0.00,Rainwise IP-100,2013-04-10 19:09:00,
2013-04-10 12:14:00,64.2,50.5,30.41,WSW,247,3.7,10.0,61,0.00,,,0.00,Rainwise IP-100,2013-04-10 19:14:00,
2013-04-10 12:19:00,64.5,50.5,30.40,WSW,247,2.1,10.5,60,0.00,,,0.00,Rainwise IP-100,2013-04-10 19:19:00,
2013-04-10 12:24:00,65.4,50.5,30.40,SSW,202,1.9,9.6,59,0.00,,,0.00,Rainwise IP-100,2013-04-10 19:24:00,
2013-04-10 12:29:00,65.9,50.0,30.40,SSW,202,2.6,10.3,57,0.00,,,0.00,Rainwise IP-100,2013-04-10 19:29:00,
2013-04-10 12:34:00,66.3,50.0,30.40,West,270,2.6,7.9,56,0.00,,,0.00,Rainwise IP-100,2013-04-10 19:34:00,
2013-04-10 12:39:00,67.0,51.0,30.39,WSW,247,3.5,7.9,56,0.00,,,0.00,Rainwise IP-100,2013-04-10 19:39:00,
2013-04-10 12:44:00,67.8,51.0,30.39,NW,315,1.9,6.8,55,0.00,,,0.00,Rainwise IP-100,2013-04-10 19:44:00,
2013-04-10 12:49:00,68.5,51.0,30.39,SSW,202,4.4,8.9,54,0.00,,,0.00,Rainwise IP-100,2013-04-10 19:49:00,
2013-04-10 12:54:00,68.0,50.5,30.39,SSE,157,3.3,11.4,53,0.00,,,0.00,Rainwise IP-100,2013-04-10 19:54:00,
2013-04-10 12:59:00,67.6,50.5,30.39,WSW,247,7.0,11.7,54,0.00,,,0.00,Rainwise IP-100,2013-04-10 19:59:00,
2013-04-10 13:04:00,67.8,50.5,30.38,SSW,202,7.2,11.0,53,0.00,,,0.00,Rainwise IP-100,2013-04-10 20:04:00,
2013-04-10 13:09:00,68.2,50.0,30.38,NW,315,1.6,14.7,52,0.00,,,0.00,Rainwise IP-100,2013-04-10 20:09:00,
2013-04-10 13:14:00,68.5,50.0,30.38,NNE,22,1.2,13.3,51,0.00,,,0.00,Rainwise IP-100,2013-04-10 20:14:00,
2013-04-10 13:19:00,67.9,50.5,30.38,SSW,202,4.2,14.9,53,0.00,,,0.00,Rainwise IP-100,2013-04-10 20:19:00,
2013-04-10 13:24:00,66.9,51.0,30.38,SW,225,4.4,12.6,56,0.00,,,0.00,Rainwise IP-100,2013-04-10 20:24:00,
2013-04-10 13:29:00,65.9,50.0,30.38,WNW,292,4.9,11.0,57,0.00,,,0.00,Rainwise IP-100,2013-04-10 20:29:00,
2013-04-10 13:34:00,64.9,50.5,30.38,South,180,2.3,16.6,59,0.00,,,0.00,Rainwise IP-100,2013-04-10 20:34:00,
2013-04-10 13:39:00,64.4,50.5,30.37,NW,315,5.1,13.5,60,0.00,,,0.00,Rainwise IP-100,2013-04-10 20:39:00,
2013-04-10 13:44:00,64.2,50.0,30.38,SSW,202,3.7,15.2,60,0.00,,,0.00,Rainwise IP-100,2013-04-10 20:44:00,
2013-04-10 13:49:00,63.8,50.5,30.38,WSW,247,4.4,15.4,61,0.00,,,0.00,Rainwise IP-100,2013-04-10 20:49:00,
2013-04-10 13:54:00,63.3,50.5,30.37,NW,315,2.8,15.4,62,0.00,,,0.00,Rainwise IP-100,2013-04-10 20:54:00,
2013-04-10 13:59:00,63.1,50.5,30.37,SW,225,10.7,12.4,63,0.00,,,0.00,Rainwise IP-100,2013-04-10 20:59:00,
2013-04-10 14:04:00,62.8,50.5,30.37,WSW,247,3.5,11.7,63,0.00,,,0.00,Rainwise IP-100,2013-04-10 21:04:00,
2013-04-10 14:09:00,62.7,50.0,30.37,WNW,292,2.3,15.6,63,0.00,,,0.00,Rainwise IP-100,2013-04-10 21:09:00,
2013-04-10 14:14:00,62.7,50.0,30.37,SW,225,4.0,9.8,64,0.00,,,0.00,Rainwise IP-100,2013-04-10 21:14:00,
2013-04-10 14:19:00,63.0,50.5,30.37,SE,135,2.1,11.4,64,0.00,,,0.00,Rainwise IP-100,2013-04-10 21:19:00,
2013-04-10 14:24:00,63.1,50.5,30.37,West,270,2.6,10.5,64,0.00,,,0.00,Rainwise IP-100,2013-04-10 21:24:00,
2013-04-10 14:29:00,62.5,50.0,30.36,WSW,247,5.8,12.1,64,0.00,,,0.00,Rainwise IP-100,2013-04-10 21:29:00,
2013-04-10 14:34:00,62.1,50.0,30.36,SSW,202,5.6,11.2,65,0.00,,,0.00,Rainwise IP-100,2013-04-10 21:34:00,
2013-04-10 14:39:00,62.2,50.5,30.36,WNW,292,3.0,14.5,66,0.00,,,0.00,Rainwise IP-100,2013-04-10 21:39:00,
2013-04-10 14:45:00,62.5,50.5,30.36,WNW,292,3.0,13.3,65,0.00,,,0.00,Rainwise IP-100,2013-04-10 21:45:00,
2013-04-10 14:50:00,62.7,50.0,30.36,WNW,292,5.1,15.2,64,0.00,,,0.00,Rainwise IP-100,2013-04-10 21:50:00,
2013-04-10 14:55:00,62.5,50.0,30.35,WNW,292,6.8,17.0,64,0.00,,,0.00,Rainwise IP-100,2013-04-10 21:55:00,
2013-04-10 15:00:00,62.5,50.0,30.35,WNW,292,9.3,16.8,64,0.00,,,0.00,Rainwise IP-100,2013-04-10 22:00:00,
2013-04-10 15:05:00,62.2,50.0,30.34,WNW,292,3.5,20.8,64,0.00,,,0.00,Rainwise IP-100,2013-04-10 22:05:00,
2013-04-10 15:10:00,62.1,50.0,30.35,WSW,247,2.3,18.0,65,0.00,,,0.00,Rainwise IP-100,2013-04-10 22:10:00,
2013-04-10 15:15:00,62.2,50.0,30.34,WSW,247,8.2,19.4,64,0.00,,,0.00,Rainwise IP-100,2013-04-10 22:15:00,
2013-04-10 15:20:00,61.8,50.0,30.34,SSE,157,3.7,21.7,65,0.00,,,0.00,Rainwise IP-100,2013-04-10 22:20:00,
2013-04-10 15:25:00,62.0,50.0,30.34,NW,315,4.2,20.5,65,0.00,,,0.00,Rainwise IP-100,2013-04-10 22:25:00,
2013-04-10 15:30:00,62.0,50.0,30.35,WNW,292,3.0,20.3,65,0.00,,,0.00,Rainwise IP-100,2013-04-10 22:30:00,
2013-04-10 15:35:00,61.7,50.0,30.34,West,270,12.6,16.1,65,0.00,,,0.00,Rainwise IP-100,2013-04-10 22:35:00,
2013-04-10 15:40:00,61.6,50.0,30.34,NW,315,4.0,17.7,65,0.00,,,0.00,Rainwise IP-100,2013-04-10 22:40:00,
2013-04-10 15:45:00,61.8,50.0,30.33,WSW,247,12.8,15.6,65,0.00,,,0.00,Rainwise IP-100,2013-04-10 22:45:00,
2013-04-10 15:50:00,62.0,50.0,30.33,West,270,8.9,19.8,65,0.00,,,0.00,Rainwise IP-100,2013-04-10 22:50:00,
2013-04-10 15:55:00,61.7,50.0,30.33,NW,315,12.4,19.1,65,0.00,,,0.00,Rainwise IP-100,2013-04-10 22:55:00,
2013-04-10 16:00:00,61.6,50.0,30.32,West,270,15.6,17.0,66,0.00,,,0.00,Rainwise IP-100,2013-04-10 23:00:00,
2013-04-10 16:05:00,62.0,50.0,30.33,WNW,292,7.0,21.7,65,0.00,,,0.00,Rainwise IP-100,2013-04-10 23:05:00,
2013-04-10 16:10:00,62.2,50.0,30.32,WNW,292,15.6,18.4,65,0.00,,,0.00,Rainwise IP-100,2013-04-10 23:10:00,
2013-04-10 16:15:00,62.2,50.0,30.32,WNW,292,8.4,20.5,64,0.00,,,0.00,Rainwise IP-100,2013-04-10 23:15:00,
2013-04-10 16:20:00,62.9,50.5,30.31,West,270,15.4,20.5,64,0.00,,,0.00,Rainwise IP-100,2013-04-10 23:20:00,
2013-04-10 16:25:00,62.8,50.5,30.32,West,270,18.7,23.6,63,0.00,,,0.00,Rainwise IP-100,2013-04-10 23:25:00,
2013-04-10 16:30:00,62.1,50.0,30.31,WNW,292,12.4,21.0,64,0.00,,,0.00,Rainwise IP-100,2013-04-10 23:30:00,
2013-04-10 16:35:00,61.7,50.0,30.32,WNW,292,10.5,22.9,65,0.00,,,0.00,Rainwise IP-100,2013-04-10 23:35:00,
2013-04-10 16:40:00,61.4,50.0,30.31,WSW,247,8.4,24.7,66,0.00,,,0.00,Rainwise IP-100,2013-04-10 23:40:00,
2013-04-10 16:45:00,61.0,50.0,30.31,West,270,18.7,24.9,67,0.00,,,0.00,Rainwise IP-100,2013-04-10 23:45:00,
2013-04-10 16:50:00,60.3,50.0,30.31,WNW,292,11.9,21.9,68,0.00,,,0.00,Rainwise IP-100,2013-04-10 23:50:00,
2013-04-10 16:55:00,60.3,50.5,30.31,WNW,292,8.9,21.0,69,0.00,,,0.00,Rainwise IP-100,2013-04-10 23:55:00,
2013-04-10 17:00:00,60.6,50.5,30.32,WSW,247,13.3,24.5,69,0.00,,,0.00,Rainwise IP-100,2013-04-11 00:00:00,
2013-04-10 17:05:00,60.4,50.5,30.31,West,270,6.8,21.0,69,0.00,,,0.00,Rainwise IP-100,2013-04-11 00:05:00,
2013-04-10 17:10:00,60.7,50.5,30.31,NW,315,9.8,18.4,69,0.00,,,0.00,Rainwise IP-100,2013-04-11 00:10:00,
2013-04-10 17:15:00,60.7,50.5,30.31,WNW,292,15.4,23.1,69,0.00,,,0.00,Rainwise IP-100,2013-04-11 00:15:00,
2013-04-10 17:20:00,59.9,50.0,30.31,WNW,292,14.7,22.6,70,0.00,,,0.00,Rainwise IP-100,2013-04-11 00:20:00,
2013-04-10 17:25:00,59.4,50.0,30.31,WNW,292,11.9,20.1,71,0.00,,,0.00,Rainwise IP-100,2013-04-11 00:25:00,
2013-04-10 17:30:00,59.3,50.5,30.31,WNW,292,9.1,19.6,72,0.00,,,0.00,Rainwise IP-100,2013-04-11 00:30:00,
2013-04-10 17:35:00,59.2,50.0,30.31,WNW,292,5.4,22.2,72,0.00,,,0.00,Rainwise IP-100,2013-04-11 00:35:00,
2013-04-10 17:40:00,59.3,50.5,30.31,West,270,12.6,22.6,73,0.00,,,0.00,Rainwise IP-100,2013-04-11 00:40:00,
2013-04-10 17:45:00,59.1,50.5,30.31,West,270,14.2,22.9,73,0.00,,,0.00,Rainwise IP-100,2013-04-11 00:45:00,
2013-04-10 17:50:00,58.8,50.5,30.30,West,270,9.8,20.3,74,0.00,,,0.00,Rainwise IP-100,2013-04-11 00:50:00,
2013-04-10 17:55:00,58.4,50.5,30.31,West,270,14.2,22.9,75,0.00,,,0.00,Rainwise IP-100,2013-04-11 00:55:00,
2013-04-10 18:00:00,57.9,50.5,30.31,WNW,292,11.9,20.1,76,0.00,,,0.00,Rainwise IP-100,2013-04-11 01:00:00,
2013-04-10 18:05:00,57.7,50.5,30.31,WNW,292,14.5,21.5,77,0.00,,,0.00,Rainwise IP-100,2013-04-11 01:05:00,
2013-04-10 18:10:00,57.8,51.0,30.31,WNW,292,9.3,20.8,77,0.00,,,0.00,Rainwise IP-100,2013-04-11 01:10:00,
2013-04-10 18:15:00,57.8,51.0,30.31,WNW,292,10.7,19.6,77,0.00,,,0.00,Rainwise IP-100,2013-04-11 01:15:00,
2013-04-10 18:20:00,57.5,50.5,30.30,West,270,18.7,18.7,78,0.00,,,0.00,Rainwise IP-100,2013-04-11 01:20:00,
2013-04-10 18:25:00,57.0,50.5,30.31,WNW,292,11.2,20.8,78,0.00,,,0.00,Rainwise IP-100,2013-04-11 01:25:00,
2013-04-10 18:30:00,56.7,50.0,30.30,WNW,292,9.3,24.0,79,0.00,,,0.00,Rainwise IP-100,2013-04-11 01:30:00,
2013-04-10 18:35:00,56.5,50.0,30.30,WNW,292,11.9,22.2,79,0.00,,,0.00,Rainwise IP-100,2013-04-11 01:35:00,
2013-04-10 18:40:00,56.2,50.0,30.30,West,270,4.0,23.3,80,0.00,,,0.00,Rainwise IP-100,2013-04-11 01:40:00,
2013-04-10 18:45:00,56.1,50.0,30.31,WNW,292,10.3,15.4,80,0.00,,,0.00,Rainwise IP-100,2013-04-11 01:45:00,
2013-04-10 18:50:00,55.8,50.0,30.30,WNW,292,6.1,17.7,81,0.00,,,0.00,Rainwise IP-100,2013-04-11 01:50:00,
2013-04-10 18:55:00,55.7,50.0,30.30,WSW,247,12.1,16.6,81,0.00,,,0.00,Rainwise IP-100,2013-04-11 01:55:00,
2013-04-10 19:00:00,55.7,50.0,30.30,WNW,292,18.2,21.5,81,0.00,,,0.00,Rainwise IP-100,2013-04-11 02:00:00,
2013-04-10 19:05:00,55.4,50.0,30.30,WNW,292,13.1,23.8,82,0.00,,,0.00,Rainwise IP-100,2013-04-11 02:05:00,
2013-04-10 19:10:00,55.1,50.0,30.30,WNW,292,6.8,21.0,82,0.00,,,0.00,Rainwise IP-100,2013-04-11 02:10:00,
2013-04-10 19:15:00,54.8,50.5,30.30,SW,225,11.9,24.9,83,0.00,,,0.00,Rainwise IP-100,2013-04-11 02:15:00,
2013-04-10 19:20:00,54.2,49.0,30.30,WNW,292,7.0,22.6,84,0.00,,,0.00,Rainwise IP-100,2013-04-11 02:20:00,
2013-04-10 19:25:00,53.8,50.0,30.29,West,270,8.9,22.6,85,0.00,,,0.00,Rainwise IP-100,2013-04-11 02:25:00,
2013-04-10 19:30:00,53.4,49.0,30.30,WNW,292,15.6,26.3,86,0.00,,,0.00,Rainwise IP-100,2013-04-11 02:30:00,
2013-04-10 19:35:00,53.0,49.0,30.30,West,270,13.8,21.9,87,0.00,,,0.00,Rainwise IP-100,2013-04-11 02:35:00,
2013-04-10 19:40:00,52.7,49.0,30.29,SW,225,2.8,21.2,88,0.00,,,0.00,Rainwise IP-100,2013-04-11 02:40:00,
2013-04-10 19:45:00,52.5,49.0,30.29,WNW,292,8.9,21.2,88,0.00,,,0.00,Rainwise IP-100,2013-04-11 02:45:00,
2013-04-10 19:50:00,52.2,49.0,30.29,West,270,12.4,24.9,89,0.00,,,0.00,Rainwise IP-100,2013-04-11 02:50:00,
2013-04-10 19:55:00,52.0,49.0,30.29,WSW,247,9.1,25.9,90,0.00,,,0.00,Rainwise IP-100,2013-04-11 02:55:00,
2013-04-10 20:00:00,51.8,49.0,30.29,WNW,292,8.6,23.6,90,0.00,,,0.00,Rainwise IP-100,2013-04-11 03:00:00,
2013-04-10 20:05:00,51.7,49.0,30.29,NW,315,12.4,25.4,91,0.00,,,0.00,Rainwise IP-100,2013-04-11 03:05:00,
2013-04-10 20:10:00,51.6,49.0,30.29,WNW,292,10.7,24.2,91,0.00,,,0.00,Rainwise IP-100,2013-04-11 03:10:00,
2013-04-10 20:15:00,51.5,50.0,30.29,WNW,292,7.5,22.9,92,0.00,,,0.00,Rainwise IP-100,2013-04-11 03:15:00,
2013-04-10 20:20:00,51.2,49.0,30.30,West,270,5.8,26.3,92,0.00,,,0.00,Rainwise IP-100,2013-04-11 03:20:00,
2013-04-10 20:25:00,51.0,49.0,30.30,West,270,10.7,26.8,92,0.00,,,0.00,Rainwise IP-100,2013-04-11 03:25:00,
2013-04-10 20:30:00,50.9,49.0,30.30,WNW,292,10.3,20.8,93,0.00,,,0.00,Rainwise IP-100,2013-04-11 03:30:00,
2013-04-10 20:35:00,50.8,49.0,30.30,WNW,292,12.4,20.5,93,0.00,,,0.00,Rainwise IP-100,2013-04-11 03:35:00,
2013-04-10 20:40:00,50.7,49.0,30.31,West,270,12.4,22.4,94,0.00,,,0.00,Rainwise IP-100,2013-04-11 03:40:00,
2013-04-10 20:45:00,50.5,49.0,30.30,NW,315,7.9,18.4,94,0.00,,,0.00,Rainwise IP-100,2013-04-11 03:45:00,
2013-04-10 20:50:00,50.4,49.0,30.31,WSW,247,1.9,24.2,95,0.00,,,0.00,Rainwise IP-100,2013-04-11 03:50:00,
2013-04-10 20:55:00,50.3,49.0,30.31,WSW,247,4.0,18.7,95,0.00,,,0.00,Rainwise IP-100,2013-04-11 03:55:00,
2013-04-10 21:00:00,50.1,48.0,30.31,WSW,247,7.2,18.7,95,0.00,,,0.00,Rainwise IP-100,2013-04-11 04:00:00,
2013-04-10 21:05:00,50.1,48.0,30.31,WNW,292,6.5,18.2,95,0.00,,,0.00,Rainwise IP-100,2013-04-11 04:05:00,
2013-04-10 21:06:00,50.1,48.0,30.30,WNW,292,10.3,18.2,95,0.00,,,0.00,Rainwise IP-100,2013-04-11 04:06:00,
2013-04-10 21:11:00,50.0,49.0,30.30,WNW,292,16.3,22.4,96,0.00,,,0.00,Rainwise IP-100,2013-04-11 04:11:00,
2013-04-10 21:16:00,50.0,49.0,30.31,WNW,292,16.3,19.4,96,0.00,,,0.00,Rainwise IP-100,2013-04-11 04:16:00,
2013-04-10 21:21:00,49.8,49.0,30.31,WNW,292,11.4,24.5,96,0.00,,,0.00,Rainwise IP-100,2013-04-11 04:21:00,
2013-04-10 21:26:00,49.6,49.0,30.31,West,270,10.3,23.3,96,0.00,,,0.00,Rainwise IP-100,2013-04-11 04:26:00,
2013-04-10 21:31:00,49.5,49.0,30.31,South,180,5.8,20.5,97,0.00,,,0.00,Rainwise IP-100,2013-04-11 04:31:00,
2013-04-10 21:36:00,49.5,49.0,30.31,West,270,1.6,15.6,97,0.00,,,0.00,Rainwise IP-100,2013-04-11 04:36:00,
2013-04-10 21:41:00,49.6,49.0,30.31,WSW,247,8.4,16.6,97,0.00,,,0.00,Rainwise IP-100,2013-04-11 04:41:00,
2013-04-10 21:46:00,49.6,49.0,30.30,WNW,292,13.5,16.6,97,0.00,,,0.00,Rainwise IP-100,2013-04-11 04:46:00,
2013-04-10 21:51:00,49.6,49.0,30.31,West,270,9.8,20.5,98,0.00,,,0.00,Rainwise IP-100,2013-04-11 04:51:00,
2013-04-10 21:56:00,49.7,49.0,30.31,West,270,13.1,18.4,98,0.00,,,0.00,Rainwise IP-100,2013-04-11 04:56:00,
2013-04-10 22:01:00,49.8,49.0,30.31,West,270,13.5,19.6,98,0.00,,,0.00,Rainwise IP-100,2013-04-11 05:01:00,
2013-04-10 22:06:00,49.8,49.0,30.31,West,270,9.8,20.8,97,0.00,,,0.00,Rainwise IP-100,2013-04-11 05:06:00,
2013-04-10 22:11:00,49.9,49.0,30.31,WNW,292,14.5,18.7,97,0.00,,,0.00,Rainwise IP-100,2013-04-11 05:11:00,
2013-04-10 22:16:00,49.9,49.0,30.31,WNW,292,11.7,23.1,97,0.00,,,0.00,Rainwise IP-100,2013-04-11 05:16:00,
2013-04-10 22:21:00,50.0,49.0,30.31,WNW,292,15.6,18.7,97,0.00,,,0.00,Rainwise IP-100,2013-04-11 05:21:00,
2013-04-10 22:26:00,50.0,49.0,30.31,West,270,8.2,19.8,97,0.00,,,0.00,Rainwise IP-100,2013-04-11 05:26:00,
2013-04-10 22:31:00,50.0,49.0,30.32,West,270,6.5,19.1,97,0.00,,,0.00,Rainwise IP-100,2013-04-11 05:31:00,
2013-04-10 22:36:00,50.0,49.0,30.31,WSW,247,7.2,18.7,97,0.00,,,0.00,Rainwise IP-100,2013-04-11 05:36:00,
2013-04-10 22:41:00,50.1,49.0,30.32,WNW,292,11.2,16.8,97,0.00,,,0.00,Rainwise IP-100,2013-04-11 05:41:00,
2013-04-10 22:46:00,50.0,49.0,30.31,WNW,292,5.1,17.0,96,0.00,,,0.00,Rainwise IP-100,2013-04-11 05:46:00,
2013-04-10 22:52:00,50.0,49.0,30.31,West,270,12.1,18.9,96,0.00,,,0.00,Rainwise IP-100,2013-04-11 05:52:00,
2013-04-10 22:57:00,50.0,49.0,30.31,WNW,292,10.7,22.2,96,0.00,,,0.00,Rainwise IP-100,2013-04-11 05:57:00,
2013-04-10 23:02:00,50.0,49.0,30.32,West,270,8.2,19.6,96,0.00,,,0.00,Rainwise IP-100,2013-04-11 06:02:00,
2013-04-10 23:07:00,50.0,49.0,30.31,WNW,292,7.7,20.8,96,0.00,,,0.00,Rainwise IP-100,2013-04-11 06:07:00,
2013-04-10 23:12:00,50.0,49.0,30.31,WNW,292,13.8,20.5,96,0.00,,,0.00,Rainwise IP-100,2013-04-11 06:12:00,
2013-04-10 23:17:00,50.0,49.0,30.31,West,270,14.2,21.2,96,0.00,,,0.00,Rainwise IP-100,2013-04-11 06:17:00,
2013-04-10 23:22:00,50.0,49.0,30.31,WNW,292,10.3,16.6,96,0.00,,,0.00,Rainwise IP-100,2013-04-11 06:22:00,
2013-04-10 23:27:00,50.1,49.0,30.31,WNW,292,7.2,18.7,96,0.00,,,0.00,Rainwise IP-100,2013-04-11 06:27:00,
2013-04-10 23:32:00,50.1,49.0,30.31,West,270,10.7,18.7,96,0.00,,,0.00,Rainwise IP-100,2013-04-11 06:32:00,
2013-04-10 23:37:00,50.2,49.0,30.31,WNW,292,11.2,18.2,96,0.00,,,0.00,Rainwise IP-100,2013-04-11 06:37:00,
2013-04-10 23:42:00,50.3,49.0,30.31,West,270,14.7,22.9,95,0.00,,,0.00,Rainwise IP-100,2013-04-11 06:42:00,
2013-04-10 23:47:00,50.3,49.0,30.31,WNW,292,9.3,18.7,95,0.00,,,0.00,Rainwise IP-100,2013-04-11 06:47:00,
2013-04-10 23:52:00,50.4,49.0,30.31,West,270,8.2,17.5,95,0.00,,,0.00,Rainwise IP-100,2013-04-11 06:52:00,
2013-04-10 23:57:00,50.5,49.0,30.31,WNW,292,9.8,17.5,95,0.00,,,0.00,Rainwise IP-100,2013-04-11 06:57:00,